Location: STAR School
(35.3054°N, 111.2976°W)
Time: 08:26:35
(UTC-07:00)

SR - Pass Details

Date: 28 May 2019
Orbit: 582 x 874 km, 66.7° (Epoch: 19 June)

Event Time Altitude Azimuth Distance (km) Brightness Sun altitude
Rises 20:10:33 0° 317° (NW) 3,000 ? -7.6°
Reaches altitude 10° 20:13:07 10° 304° (NW) 2,132 ? -8.0°
Maximum altitude 20:17:01 25° 250° (WSW) 1,446 ? -8.7°
Drops below altitude 10° 20:21:10 10° 197° (SSW) 2,278 ? -9.4°
Sets 20:24:02 0° 184° (S) 3,254 ? -9.9°
